Weather History for Cooperstown, ND

Change the Weather History Date:

Sunday, April 27, 2014

  Actual Average (KJMS) Record (KJMS)
Temperature  
Mean Temperature 37 °F 48 °F  
Max Temperature 39 °F 61 °F 94 °F (1952)
Min Temperature 35 °F 35 °F 13 °F (1909)
Degree Days  
Heating Degree Days 28 17  
Month to date heating degree days 628  
Since 1 July heating degree days 8548  
Cooling Degree Days 0 0  
Month to date cooling degree days 0  
Year to date cooling degree days 0  
Moisture  
Dew Point 37 °F    
Average Humidity 100    
Maximum Humidity 100    
Minimum Humidity 100    
Precipitation  
Precipitation 0.05 in 0.05 in 1.02 in (1984)
Month to date precipitation 1.02  
Year to date precipitation 2.71  
Sea Level Pressure  
Sea Level Pressure 29.70 in    
Wind  
Wind Speed 21 mph (East)    
Max Wind Speed 32 mph    
Max Gust Speed 39 mph    
Visibility 7 miles    
Events Rain    
T = Trace of Precipitation, MM = Missing Value Source: NWS Daily Summary

Daily Weather History Graph

Daily Weather History Graph

Search for Another Location

Airport:

Trip Planner

Search our weather history database for the weather conditions in past years. The results will help you decide how hot, cold, wet, or windy it might be!

Date:

Astronomy

Apr. 27, 2014 Rise Set
Actual Time 6:22 AM CDT 8:38 PM CDT
Civil Twilight 5:48 AM CDT 9:12 PM CDT
Nautical Twilight 5:06 AM CDT 9:54 PM CDT
Astronomical Twilight 4:19 AM CDT 10:42 PM CDT
Moon 5:31 AM CDT (4/27) 7:08 PM CDT (4/27)
Length of Visible Light 15h 23m
Length of Day
14h 16m
Waning Crescent, 3% of the Moon is Illuminated
Apr 27
Waning Crescent
Apr 29
New
May 6
First Quarter
May 14
Full
May 21
Last Quarter

Hourly Weather History & Observations

Time (CDT) Temp. Windchill Dew Point Humidity Pressure Visibility Wind Dir Wind Speed Gust Speed Precip Events Conditions
12:15 AM 39.2 °F 29.8 °F 39.2 °F 100% 29.82 in 9.0 mi ESE 18.4 mph 26.5 mph N/A Rain Light Rain
12:35 AM 39.2 °F 30.5 °F 39.2 °F 100% 29.82 in 10.0 mi ESE 16.1 mph - N/A   Overcast
12:55 AM 39.2 °F 30.2 °F 39.2 °F 100% 29.82 in 10.0 mi East 17.3 mph - N/A   Overcast
1:15 AM 39.2 °F 29.3 °F 39.2 °F 100% 29.81 in 10.0 mi ESE 20.7 mph 26.5 mph N/A   Overcast
1:35 AM 39.2 °F 29.6 °F 39.2 °F 100% 29.81 in 10.0 mi ESE 19.6 mph - N/A   Overcast
1:55 AM 39.2 °F 29.0 °F 39.2 °F 100% 29.80 in 5.0 mi East 21.9 mph 29.9 mph 0.01 in Rain Light Rain
2:15 AM 37.4 °F 26.9 °F 37.4 °F 100% 29.80 in 10.0 mi East 20.7 mph - N/A   Overcast
2:35 AM 37.4 °F 27.5 °F 37.4 °F 100% 29.80 in 10.0 mi East 18.4 mph 25.3 mph N/A   Overcast
2:55 AM 37.4 °F 27.2 °F 37.4 °F 100% 29.78 in 10.0 mi East 19.6 mph 25.3 mph N/A   Overcast
3:15 AM 37.4 °F 26.9 °F 37.4 °F 100% 29.76 in 10.0 mi East 20.7 mph 25.3 mph N/A   Overcast
3:35 AM 37.4 °F 27.8 °F 37.4 °F 100% 29.75 in - East 17.3 mph - N/A   Unknown
3:55 AM 37.4 °F 26.9 °F 37.4 °F 100% 29.75 in 10.0 mi East 20.7 mph - N/A   Overcast
4:15 AM 37.4 °F 27.2 °F 37.4 °F 100% 29.75 in 10.0 mi East 19.6 mph 26.5 mph N/A   Overcast
4:35 AM 37.4 °F 26.6 °F 37.4 °F 100% 29.74 in 10.0 mi East 21.9 mph 28.8 mph N/A   Overcast
4:55 AM 35.6 °F 24.0 °F 35.6 °F 100% 29.73 in 10.0 mi East 23.0 mph 28.8 mph N/A   Overcast
5:15 AM 35.6 °F 24.5 °F 35.6 °F 100% 29.74 in 10.0 mi East 20.7 mph 28.8 mph N/A   Overcast
5:35 AM 35.6 °F 24.2 °F 35.6 °F 100% 29.75 in 10.0 mi East 21.9 mph 29.9 mph N/A   Overcast
5:55 AM 35.6 °F 24.2 °F 35.6 °F 100% 29.76 in 10.0 mi ESE 21.9 mph 29.9 mph N/A   Overcast
6:15 AM 35.6 °F 24.2 °F 35.6 °F 100% 29.77 in 10.0 mi ESE 21.9 mph 25.3 mph N/A   Overcast
6:35 AM 35.6 °F 24.8 °F 35.6 °F 100% 29.77 in 9.0 mi East 19.6 mph 25.3 mph N/A   Overcast
7:15 AM 35.6 °F 24.0 °F 35.6 °F 100% 29.75 in 7.0 mi East 23.0 mph 28.8 mph N/A   Overcast
7:35 AM 35.6 °F 24.2 °F 35.6 °F 100% 29.74 in 10.0 mi East 21.9 mph 28.8 mph N/A   Overcast
7:55 AM 35.6 °F 24.0 °F 35.6 °F 100% 29.75 in 10.0 mi East 23.0 mph 28.8 mph N/A   Overcast
8:15 AM 35.6 °F 23.4 °F 35.6 °F 100% 29.72 in 10.0 mi East 25.3 mph 32.2 mph N/A   Overcast
8:35 AM 35.6 °F 23.4 °F 35.6 °F 100% 29.71 in 10.0 mi East 25.3 mph 33.4 mph N/A   Overcast
8:55 AM 35.6 °F 23.0 °F 35.6 °F 100% 29.68 in 10.0 mi East 27.6 mph 35.7 mph N/A   Overcast
9:15 AM 35.6 °F 22.5 °F 35.6 °F 100% 29.69 in 10.0 mi East 29.9 mph 36.8 mph N/A   Overcast
9:35 AM 35.6 °F 23.4 °F 35.6 °F 100% 29.69 in 10.0 mi East 25.3 mph 33.4 mph N/A   Overcast
9:55 AM 35.6 °F 23.7 °F 35.6 °F 100% 29.70 in 10.0 mi East 24.2 mph 33.4 mph N/A   Overcast
10:15 AM 35.6 °F 24.2 °F 35.6 °F 100% 29.70 in 10.0 mi East 21.9 mph 33.4 mph N/A   Overcast
10:35 AM 37.4 °F 26.1 °F 37.4 °F 100% 29.71 in 10.0 mi East 24.2 mph 33.4 mph N/A   Overcast
11:15 AM 37.4 °F 25.9 °F 37.4 °F 100% 29.69 in 10.0 mi East 25.3 mph 32.2 mph N/A   Overcast
11:35 AM 37.4 °F 27.8 °F 37.4 °F 100% 29.70 in 10.0 mi East 17.3 mph 28.8 mph N/A   Overcast
11:55 AM 37.4 °F 26.1 °F 37.4 °F 100% 29.69 in 10.0 mi East 24.2 mph 27.6 mph N/A   Overcast
12:15 PM 37.4 °F 26.6 °F 37.4 °F 100% 29.70 in 10.0 mi East 21.9 mph 25.3 mph N/A   Overcast
12:35 PM 37.4 °F 27.5 °F 37.4 °F 100% 29.69 in 10.0 mi East 18.4 mph 27.6 mph N/A   Overcast
12:55 PM 37.4 °F 27.8 °F 37.4 °F 100% 29.69 in 10.0 mi East 17.3 mph 29.9 mph N/A   Overcast
1:15 PM 37.4 °F 26.4 °F 37.4 °F 100% 29.68 in 10.0 mi East 23.0 mph 33.4 mph N/A   Overcast
1:35 PM 37.4 °F 25.9 °F 37.4 °F 100% 29.67 in 8.0 mi East 25.3 mph 38.0 mph N/A   Overcast
1:55 PM 37.4 °F 26.4 °F 37.4 °F 100% 29.68 in 3.0 mi East 23.0 mph 28.8 mph N/A   Overcast
2:15 PM 37.4 °F 26.1 °F 37.4 °F 100% 29.67 in 2.0 mi East 24.2 mph 31.1 mph N/A   Overcast
2:35 PM 37.4 °F 26.6 °F 37.4 °F 100% 29.67 in 1.5 mi East 21.9 mph 28.8 mph N/A   Overcast
3:15 PM 37.4 °F 25.6 °F 37.4 °F 100% 29.66 in 1.8 mi East 26.5 mph 35.7 mph N/A   Overcast
3:55 PM 37.4 °F 24.6 °F 37.4 °F 100% 29.63 in 5.0 mi East 32.2 mph 39.1 mph N/A   Overcast
4:15 PM 37.4 °F 25.9 °F 37.4 °F 100% 29.63 in 2.0 mi East 25.3 mph 35.7 mph N/A   Overcast
4:35 PM 37.4 °F 25.9 °F 37.4 °F 100% 29.63 in 2.5 mi East 25.3 mph 35.7 mph N/A   Overcast
5:15 PM 37.4 °F 26.4 °F 37.4 °F 100% 29.65 in 1.2 mi East 23.0 mph 28.8 mph N/A   Overcast
5:35 PM 37.4 °F 26.4 °F 37.4 °F 100% 29.64 in 1.8 mi East 23.0 mph 28.8 mph N/A   Overcast
5:55 PM 37.4 °F 27.5 °F 37.4 °F 100% 29.64 in 1.8 mi East 18.4 mph 25.3 mph N/A   Overcast
6:15 PM 37.4 °F 26.6 °F 37.4 °F 100% 29.64 in 1.5 mi East 21.9 mph 27.6 mph N/A   Overcast
6:35 PM 37.4 °F 26.4 °F 37.4 °F 100% 29.65 in 1.5 mi East 23.0 mph 32.2 mph N/A   Overcast
6:55 PM 37.4 °F 25.9 °F 37.4 °F 100% 29.65 in 3.0 mi East 25.3 mph 35.7 mph N/A   Overcast
7:15 PM 37.4 °F 25.4 °F 37.4 °F 100% 29.65 in 10.0 mi East 27.6 mph 38.0 mph N/A   Overcast
7:35 PM 37.4 °F 25.9 °F 37.4 °F 100% 29.65 in 9.0 mi East 25.3 mph 33.4 mph N/A   Overcast
7:55 PM 37.4 °F 26.1 °F 37.4 °F 100% 29.66 in 3.0 mi East 24.2 mph 33.4 mph N/A   Overcast
8:15 PM 37.4 °F 25.0 °F 37.4 °F 100% 29.66 in 3.0 mi East 29.9 mph 36.8 mph N/A   Overcast
8:35 PM 37.4 °F 25.2 °F 37.4 °F 100% 29.67 in 4.0 mi ESE 28.8 mph 36.8 mph N/A   Overcast
8:55 PM 37.4 °F 27.5 °F 37.4 °F 100% 29.68 in 3.0 mi East 18.4 mph 31.1 mph N/A   Overcast
9:15 PM 35.6 °F 24.8 °F 35.6 °F 100% 29.67 in 3.0 mi East 19.6 mph 26.5 mph N/A   Overcast
9:35 PM 35.6 °F 24.5 °F 35.6 °F 100% 29.67 in 7.0 mi East 20.7 mph 28.8 mph N/A   Overcast
9:55 PM 35.6 °F 24.8 °F 35.6 °F 100% 29.66 in 10.0 mi East 19.6 mph 25.3 mph N/A   Overcast
10:15 PM 35.6 °F 25.5 °F 35.6 °F 100% 29.66 in 10.0 mi East 17.3 mph 23.0 mph N/A   Overcast
10:35 PM 35.6 °F 26.2 °F 35.6 °F 100% 29.67 in 8.0 mi East 15.0 mph - N/A   Overcast
10:55 PM 35.6 °F 25.2 °F 35.6 °F 100% 29.66 in 5.0 mi East 18.4 mph 25.3 mph 0.02 in Rain Light Rain
11:15 PM 35.6 °F 24.2 °F 35.6 °F 100% 29.66 in 4.0 mi East 21.9 mph 27.6 mph N/A Rain Light Rain
11:35 PM 35.6 °F 24.0 °F 35.6 °F 100% 29.65 in 5.0 mi East 23.0 mph 32.2 mph 0.01 in Rain Light Rain
11:55 PM 35.6 °F 23.2 °F 35.6 °F 100% 29.64 in 6.0 mi East 26.5 mph 35.7 mph 0.02 in Rain Light Rain